Time,TemperatureF,DewpointF,PressureIn,WindDirection,WindDirectionDegrees,WindSpeedMPH,WindSpeedGustMPH,Humidity,HourlyPrecipIn,Conditions,Clouds,dailyrainin,SoftwareType,DateUTC
2013-08-28 10:14:00,64.0,55.0,29.87,ENE,57,0.0,-999.0,73,-99.99,,,-99.99,,2013-08-28 17:14:00,
2013-08-28 10:24:00,64.0,56.0,29.88,ENE,57,0.0,-999.0,74,-99.99,,,-99.99,,2013-08-28 17:24:00,
2013-08-28 10:52:00,67.0,55.0,29.88,ENE,58,1.0,-999.0,66,-99.99,,,-99.99,,2013-08-28 17:52:00,
2013-08-28 11:12:00,68.0,55.0,29.88,ENE,58,0.0,-999.0,64,-99.99,,,-99.99,,2013-08-28 18:12:00,
2013-08-28 11:21:00,67.0,55.0,29.88,ENE,58,1.0,-999.0,65,-99.99,,,-99.99,,2013-08-28 18:21:00,
2013-08-28 11:52:00,67.0,56.0,29.89,ENE,58,0.0,-999.0,69,-99.99,,,-99.99,,2013-08-28 18:52:00,
2013-08-28 12:12:00,69.0,56.0,29.89,ENE,59,0.0,-999.0,64,-99.99,,,-99.99,,2013-08-28 19:12:00,
2013-08-28 12:21:00,70.0,56.0,29.89,ENE,59,1.0,-999.0,62,-99.99,,,-99.99,,2013-08-28 19:21:00,
2013-08-28 12:42:00,70.0,56.0,29.89,ENE,59,0.0,-999.0,61,-99.99,,,-99.99,,2013-08-28 19:42:00,
2013-08-28 12:52:00,70.0,56.0,29.89,ENE,59,0.0,-999.0,62,-99.99,,,-99.99,,2013-08-28 19:52:00,
2013-08-28 13:12:00,68.0,55.0,29.89,ENE,62,1.0,-999.0,63,-99.99,,,-99.99,,2013-08-28 20:12:00,
2013-08-28 13:22:00,69.0,55.0,29.89,ENE,65,1.0,-999.0,62,-99.99,,,-99.99,,2013-08-28 20:22:00,
2013-08-28 13:52:00,71.0,56.0,29.89,East,84,1.0,-999.0,59,-99.99,,,-99.99,,2013-08-28 20:52:00,
2013-08-28 14:11:00,70.0,55.0,29.89,East,92,2.0,-999.0,60,-99.99,,,-99.99,,2013-08-28 21:11:00,
2013-08-28 14:22:00,70.0,56.0,29.88,East,101,2.0,-999.0,62,-99.99,,,-99.99,,2013-08-28 21:22:00,
2013-08-28 14:57:00,71.0,56.0,29.88,ESE,118,1.0,-999.0,60,-99.99,,,-99.99,,2013-08-28 21:57:00,
2013-08-28 15:15:00,72.0,57.0,29.87,ESE,122,0.0,-999.0,59,-99.99,,,-99.99,,2013-08-28 22:15:00,
2013-08-28 15:25:00,71.0,56.0,29.88,SE,128,1.0,-999.0,60,-99.99,,,-99.99,,2013-08-28 22:25:00,
2013-08-28 15:54:00,70.0,56.0,29.87,SE,136,1.0,-999.0,62,-99.99,,,-99.99,,2013-08-28 22:54:00,
2013-08-28 16:13:00,70.0,56.0,29.87,SE,137,1.0,-999.0,62,-99.99,,,-99.99,,2013-08-28 23:13:00,
2013-08-28 16:22:00,69.0,55.0,29.87,SE,141,2.0,-999.0,62,-99.99,,,-99.99,,2013-08-28 23:22:00,
2013-08-28 16:53:00,71.0,57.0,29.87,SE,142,1.0,-999.0,61,-99.99,,,-99.99,,2013-08-28 23:53:00,
2013-08-28 17:11:00,70.0,57.0,29.86,SE,144,1.0,-999.0,63,-99.99,,,-99.99,,2013-08-29 00:11:00,
2013-08-28 18:12:00,70.0,58.0,29.86,SE,144,0.0,-999.0,65,-99.99,,,-99.99,,2013-08-29 01:12:00,
2013-08-28 18:22:00,69.0,57.0,29.86,SE,144,0.0,-999.0,66,-99.99,,,-99.99,,2013-08-29 01:22:00,
2013-08-28 18:42:00,69.0,57.0,29.86,SSE,154,2.0,-999.0,66,-99.99,,,-99.99,,2013-08-29 01:42:00,
2013-08-28 18:52:00,68.0,57.0,29.85,SSE,156,1.0,-999.0,69,-99.99,,,-99.99,,2013-08-29 01:52:00,
2013-08-28 19:11:00,68.0,57.0,29.86,SSE,157,1.0,-999.0,68,-99.99,,,-99.99,,2013-08-29 02:11:00,
2013-08-28 19:22:00,68.0,57.0,29.85,SSE,157,1.0,-999.0,69,-99.99,,,-99.99,,2013-08-29 02:22:00,
2013-08-28 20:11:00,66.0,57.0,29.86,SSE,157,0.0,-999.0,73,-99.99,,,-99.99,,2013-08-29 03:11:00,
2013-08-28 20:22:00,64.0,57.0,29.87,SSE,157,0.0,-999.0,77,-99.99,,,-99.99,,2013-08-29 03:22:00,
2013-08-28 20:56:00,64.0,58.0,29.88,SSE,157,0.0,-999.0,80,-99.99,,,-99.99,,2013-08-29 03:56:00,
2013-08-28 21:17:00,64.0,58.0,29.88,SSE,157,0.0,-999.0,80,-99.99,,,-99.99,,2013-08-29 04:17:00,
2013-08-28 21:28:00,63.0,57.0,29.88,SSE,157,0.0,-999.0,80,-99.99,,,-99.99,,2013-08-29 04:28:00,
2013-08-28 21:54:00,61.0,56.0,29.89,SSE,157,0.0,-999.0,85,-99.99,,,-99.99,,2013-08-29 04:54:00,
2013-08-28 22:14:00,61.0,56.0,29.90,SSE,157,0.0,-999.0,84,-99.99,,,-99.99,,2013-08-29 05:14:00,
2013-08-28 22:23:00,61.0,56.0,29.90,SSE,157,0.0,-999.0,83,-99.99,,,-99.99,,2013-08-29 05:23:00,
2013-08-28 22:42:00,61.0,56.0,29.91,SSE,157,0.0,-999.0,85,-99.99,,,-99.99,,2013-08-29 05:42:00,
2013-08-28 22:52:00,60.0,55.0,29.90,SSE,157,0.0,-999.0,85,-99.99,,,-99.99,,2013-08-29 05:52:00,
2013-08-28 23:12:00,59.0,55.0,29.91,SSE,157,0.0,-999.0,87,-99.99,,,-99.99,,2013-08-29 06:12:00,
2013-08-28 23:21:00,58.0,54.0,29.92,SSE,157,0.0,-999.0,88,-99.99,,,-99.99,,2013-08-29 06:21:00,
2013-08-28 23:52:00,57.0,54.0,29.92,SSE,157,0.0,-999.0,89,-99.99,,,-99.99,,2013-08-29 06:52:00,